Change the Weather History Date:

Tuesday, June 25, 2013

  Actual Average Record
Temperature  
Mean Temperature 87 °F -  
Max Temperature 96 °F 88 °F 104 °F (2012)
Min Temperature 78 °F 70 °F 64 °F (2001)
Cooling Degree Days 22    
Growing Degree Days 37 (Base 50)    
Moisture  
Dew Point 67 °F    
Average Humidity 54    
Maximum Humidity 78    
Minimum Humidity 33    
Precipitation  
Precipitation 0.00 in - - ()
Sea Level Pressure  
Sea Level Pressure 29.90 in    
Wind  
Wind Speed 11 mph (South)    
Max Wind Speed 18 mph    
Max Gust Speed 29 mph    
Visibility 10 miles    
Events      
Averages and records for this station are not official NWS values.
T = Trace of Precipitation, MM = Missing Value Source: NWS Daily Summary

Daily Weather History Graph

Daily Weather History Graph

Search for Another Location

Airport or City:

Trip Planner

Search our weather history database for the weather conditions in past years. The results will help you decide how hot, cold, wet, or windy it might be!

Date:

Astronomy

Jun. 25, 2013 Rise Set
Actual Time 6:21 AM CDT 8:39 PM CDT
Civil Twilight 5:52 AM CDT 9:07 PM CDT
Nautical Twilight 5:17 AM CDT 9:42 PM CDT
Astronomical Twilight 4:39 AM CDT 10:20 PM CDT
Moon 10:36 PM CDT (6/25) 8:53 AM CDT (6/25)
Length of Visible Light 15h 14m
Length of Day
14h 17m
Waning Gibbous, 92% of the Moon is Illuminated
Jun 25
Waning Gibbous
Jun 29
Last Quarter
Jul 8
New
Jul 15
First Quarter
Jul 22
Full

Hourly Weather History & Observations

Time (CDT) Temp. Heat Index Dew Point Humidity Pressure Visibility Wind Dir Wind Speed Gust Speed Precip Events Conditions
12:53 AM 84.9 °F 87.1 °F 66.0 °F 53% 29.94 in 10.0 mi South 8.1 mph - N/A   Clear
1:53 AM 84.0 °F 85.8 °F 64.9 °F 53% 29.91 in 10.0 mi South 13.8 mph 24.2 mph N/A   Clear
2:53 AM 82.0 °F 84.5 °F 66.9 °F 60% 29.91 in 10.0 mi South 15.0 mph 26.5 mph N/A   Clear
3:53 AM 80.1 °F 82.7 °F 68.0 °F 67% 29.93 in 10.0 mi South 10.4 mph 21.9 mph N/A   Clear
4:53 AM 78.1 °F - 70.0 °F 76% 29.93 in 10.0 mi South 11.5 mph 24.2 mph N/A   Clear
5:53 AM 78.1 °F - 70.0 °F 76% 29.93 in 10.0 mi South 10.4 mph 17.3 mph N/A   Mostly Cloudy
6:49 AM 78.8 °F - 69.8 °F 74% 29.97 in 10.0 mi South 11.5 mph 16.1 mph N/A   Scattered Clouds
6:53 AM 78.1 °F - 70.0 °F 76% 29.94 in 10.0 mi South 9.2 mph 18.4 mph N/A   Partly Cloudy
7:53 AM 79.0 °F - 71.1 °F 77% 29.95 in 10.0 mi South 12.7 mph 19.6 mph N/A   Mostly Cloudy
8:00 AM 78.8 °F - 71.6 °F 78% 29.98 in 10.0 mi South 10.4 mph 19.6 mph N/A   Scattered Clouds
8:53 AM 81.0 °F 85.2 °F 72.0 °F 74% 29.96 in 10.0 mi South 12.7 mph 21.9 mph N/A   Scattered Clouds
9:17 AM 82.4 °F 87.2 °F 71.6 °F 70% 30.00 in 10.0 mi South 9.2 mph 21.9 mph N/A   Mostly Cloudy
9:53 AM 84.0 °F 89.0 °F 71.1 °F 65% 29.96 in 10.0 mi South 16.1 mph 25.3 mph N/A   Mostly Cloudy
10:53 AM 87.1 °F 92.0 °F 70.0 °F 57% 29.94 in 10.0 mi South 16.1 mph 27.6 mph N/A   Mostly Cloudy
11:53 AM 89.1 °F 92.9 °F 68.0 °F 50% 29.94 in 10.0 mi South 9.2 mph 26.5 mph N/A   Partly Cloudy
12:53 PM 91.0 °F 93.8 °F 66.0 °F 44% 29.92 in 10.0 mi SSW 13.8 mph 24.2 mph N/A   Clear
1:53 PM 93.0 °F 96.4 °F 66.9 °F 42% 29.89 in 10.0 mi South 12.7 mph 26.5 mph N/A   Clear
2:53 PM 93.9 °F 97.5 °F 66.9 °F 41% 29.87 in 10.0 mi South 16.1 mph 25.3 mph N/A   Clear
3:53 PM 95.0 °F 97.4 °F 64.9 °F 37% 29.86 in 10.0 mi SSW 10.4 mph 20.7 mph N/A   Clear
4:53 PM 95.0 °F 97.0 °F 64.0 °F 36% 29.85 in 10.0 mi South 9.2 mph 19.6 mph N/A   Clear
5:53 PM 96.1 °F 98.3 °F 64.0 °F 35% 29.83 in 10.0 mi SSE 18.4 mph 28.8 mph N/A   Clear
6:53 PM 95.0 °F 95.6 °F 62.1 °F 33% 29.81 in 10.0 mi South 11.5 mph 21.9 mph N/A   Clear
7:53 PM 93.9 °F 94.8 °F 62.1 °F 35% 29.81 in 10.0 mi South 8.1 mph 19.6 mph N/A   Clear
8:53 PM 91.9 °F 91.8 °F 61.0 °F 35% 29.81 in 10.0 mi South 8.1 mph 17.3 mph N/A   Clear
9:53 PM 90.0 °F 90.0 °F 61.0 °F 38% 29.81 in 10.0 mi South 10.4 mph 17.3 mph N/A   Clear
10:53 PM 89.1 °F 90.3 °F 64.0 °F 43% 29.83 in 10.0 mi South 15.0 mph 20.7 mph N/A   Clear
11:53 PM 87.1 °F 88.3 °F 64.0 °F 46% 29.83 in 10.0 mi South 10.4 mph 20.7 mph N/A   Clear